Location: Bothwell
(41.7170°N, 112.2589°W)
Time: 02:40:12
(UTC+00:00)

Tiros 1 - Pass Details

Date: 16 May 2026
Orbit: 618 x 649 km, 48.4° (Epoch: 6 June)

Event Time Altitude Azimuth Distance (km) Brightness Sun altitude
Rises 05:53:14 0° 214° (SW) 2,918 - -25.5°
Reaches altitude 10° 05:55:42 10° 206° (SSW) 2,008 - -25.7°
Maximum altitude 05:59:54 35° 140° (SE) 1,012 - -26.0°
Drops below altitude 10° 06:04:05 10° 75° (ENE) 1,999 - -26.3°
Exits shadow 06:05:48 - 68° (ENE) 2,631 10.3 -26.4°
Sets 06:06:32 0° 66° (ENE) 2,903 10.5 -26.5°
